This demonstration page uses our WeatherBlox Daily Observations layout. Learn more.

39.92423, -83.80882

Hourly Observations for July 19, 2016

Temp ( °F °C ) Dew Point ( °F °C ) Humidity (%) Winds ( mph kmh ) Pressure ( in mb ) Visibility ( mi km ) Precip ( " mm )
12:56 am 00:56 Clear 70 21.1 69 20.6 97 97 SW 3 6 30.2 1023 8 12.87472 0 0
1:48 am 01:48 Clear with Mist and Fog 70 21 70 21 100 100 WSW 5 7 30.18 1022 1.75 2.816345 0 0
1:56 am 01:56 Clear with Mist and Fog 69 20.6 69 20.6 100 100 W 3 6 30.19 1023 2.5 4.02335 0 0
2:03 am 02:03 Clear with Mist and Fog 70 21 70 21 100 100 W 5 7 30.18 1022 6 9.65604 0 0
2:53 am 02:53 Clear with Mist and Fog 70 21 70 21 100 100 W 3 6 N/A 2.5 4.02335 0 0
2:56 am 02:56 Clear with Mist and Fog 70 21.1 70 21.1 100 100 W 3 6 30.19 1022 2.5 4.02335 0 0
3:20 am 03:20 Clear with Mist and Fog 70 21 70 21 100 100 NNW 3 6 30.18 1022 3 4.82802 0 0
3:46 am 03:46 Clear with Mist and Fog 68 20 68 20 100 100 NW 3 6 N/A 2 3.21868 0 0
3:56 am 03:56 Clear with Mist and Fog 68 20 67 19.4 96 96 NW 3 6 N/A 1.25 2.011675 0 0
4:02 am 04:02 Mostly Cloudy with Mist and Fog 68 20 66 19 94 94 NW 5 7 30.21 1023 0.75 1.207005 0 0
4:06 am 04:06 Mostly Cloudy with Fog 68 20 66 19 94 94 NW 5 7 30.21 1023 0.25 0.402335 0 0
4:36 am 04:36 Cloudy with Fog 70 21 70 21 100 100 NNW 6 9 30.21 1023 0.25 0.402335 0 0
5:12 am 05:12 Cloudy with Fog 70 21 70 21 100 100 NNW 5 7 30.21 1023 0.5 0.80467 0 0
5:26 am 05:26 Cloudy with Mist and Fog 70 21 70 21 100 100 NNW 3 6 30.21 1023 1 1.60934 0 0
5:56 am 05:56 Cloudy with Mist and Fog 69 20.6 68 20 96 96 NNW 3 6 30.22 1023 3 4.82802 0 0
6:05 am 06:05 Cloudy with Mist and Fog 70 21 68 20 94 94 Calm 30.21 1023 3 4.82802 0 0
6:17 am 06:17 Mostly Cloudy with Mist and Fog 68 20 68 20 100 100 Calm 30.21 1023 1.75 2.816345 0 0
6:27 am 06:27 Mostly Cloudy with Fog 68 20 66 19 94 94 Calm 30.21 1023 0.25 0.402335 0 0
6:35 am 06:35 Mostly Cloudy with Fog 66 19 66 19 100 100 SW 3 6 30.27 1025 0.25 0.402335 0 0
6:56 am 06:56 Mostly Cloudy with Fog 67 19.4 66 18.9 97 97 Calm 30.24 1024 5 8.0467 0 0
7:30 am 07:30 Cloudy with Mist and Fog 70 21 68 20 94 94 W 3 6 30.24 1024 0.75 1.207005 0 0
7:44 am 07:44 Cloudy with Mist and Fog 70 21 70 21 100 100 W 7 11 30.24 1024 1.25 2.011675 0 0
7:56 am 07:56 Cloudy with Mist and Fog 69 20.6 69 20.6 100 100 WNW 5 7 30.25 1024 2 3.21868 0 0
8:14 am 08:14 Cloudy with Mist and Fog 72 22 70 21 94 94 NW 5 7 30.24 1024 3 4.82802 0 0
8:56 am 08:56 Partly Cloudy with Mist and Fog 72 22.2 69 20.6 91 91 Calm 30.26 1025 6 9.65604 0 0
9:56 am 09:56 Sunny 76 24.4 68 20 77 77 Calm 30.26 1025 10 16.0934 0 0
10:56 am 10:56 Sunny 80 26.7 65 18.3 60 60 NW 5 7 30.25 1024 10 16.0934 0 0
11:56 am 11:56 Sunny 82 27.8 61 16.1 49 49 NW 3 6 30.25 1024 10 16.0934 0 0
3:56 pm 15:56 Sunny 85 29.4 60 15.6 43 43 VRB 5 7 30.2 1023 10 16.0934 0 0
5:56 pm 17:56 Sunny 85 29.4 63 17.2 48 48 NNW 7 11 30.18 1022 10 16.0934 0 0
6:56 pm 18:56 Mostly Sunny 84 28.9 63 17.2 49 49 NW 8 13 30.19 1022 10 16.0934 0 0
9:56 pm 21:56 Clear 74 23.3 64 17.8 71 71 Calm 30.19 1023 10 16.0934 0 0
10:56 pm 22:56 Clear 70 21.1 65 18.3 84 84 Calm 30.21 1023 10 16.0934 0 0
11:56 pm 23:56 Clear 68 20 65 18.3 90 90 Calm 30.21 1023 10 16.0934 0 0

Powered by AerisWeather